User: anonymous   Login
Location: Bastogne Gables
(35.1554°N, 78.9900°W)
Time: 13:54:28
(UTC+00:00)
Language:

AQUARIUS - Orbit

View from above orbital plane
View from above orbital plane
View from above satellite
View from above satellite

Ground track
Ground track

The orbit data is extracted from the following two-line orbital elements,

1 37673U 11024A   21137.94288802  .00000112  00000-0  25078-4 0  9999
2 37673  98.0064 146.9768 0000976  59.5374 359.9996 14.73100674534084
Epoch (UTC): 17 May 2021 22:37:45
Eccentricity: 0.0000976
inclination: 98.0064°
perigee height: 650 km
apogee height: 652 km
right ascension of ascending node: 146.9768°
argument of perigee: 59.5374°
revolutions per day: 14.73100674
mean anomaly at epoch: 359.9996°
orbit number at epoch: 53408

The dashed part of the orbit path shows where the satellite is in the earth's shadow,  

DLR